STARLINK-34531

Last updated on Sat Aug 02 2025 00:02:05 GMT+0000 (Coordinated Universal Time)

1 64750U 25144AC 25213.15607957 .00043710 00000+0 10958-2 0 9990 2 64750 53.1601 127.0660 0001761 29.1902 330.9201 15.39638389 5929
UTC large
Height (km)
Speed (km/s)
/
Latitude / Longitude
Inclination (degrees)
Orbital Period (minutes)
Azimuth
Elevation
Range (km)
Doppler Factor

Next 0 passes for location: London (51.5072 / 0.1276)

Sorry there are no passes over London.